Location: Unspecified
(0.0000°N, 0.0000°E)
Time: 17:42:47
(UTC+00:00)

Vanguard 2 - Pass Details

Date: 20 April 2026
Orbit: 553 x 2895 km, 32.9° (Epoch: 17 May)

Event Time Altitude Azimuth Distance (km) Brightness Sun altitude
Exits shadow 01:48:17 14° 148° (SSE) 4,911 11.6 -60.5°
Drops below altitude 10° 01:51:39 10° 135° (SE) 5,087 11.8 -59.8°
Sets 01:57:23 0° 117° (ESE) 5,684 12.2 -58.4°
